McCook, NE

8:17 PM CDT on June 26, 2017 (GMT -0500)
McCook Municipal

Weather History for KMCK - January, 2013

Change the Weather History Date:

Saturday, January 5, 2013

  Actual Average Record
Temperature  
Mean Temperature 20 °F 27 °F  
Max Temperature 39 °F 40 °F 72 °F (1935)
Min Temperature 1 °F 14 °F -21 °F (1924)
Degree Days  
Heating Degree Days 45    
Moisture  
Dew Point 14 °F    
Average Humidity 73    
Maximum Humidity 87    
Minimum Humidity 59    
Precipitation  
Precipitation 0.00 in 0.01 in 0.80 in (1949)
Month to date precipitation T 0.08  
Year to date precipitation T 0.08  
Sea Level Pressure  
Sea Level Pressure 30.25 in    
Wind  
Wind Speed 11 mph (WNW)    
Max Wind Speed 22 mph    
Max Gust Speed -    
Visibility 10 miles    
Events      
T = Trace of Precipitation, MM = Missing Value Source: NWS Daily Summary

Daily Weather History Graph

Daily Weather History Graph

Search for Another Location

Airport or City:

Trip Planner

Search our weather history database for the weather conditions in past years. The results will help you decide how hot, cold, wet, or windy it might be!

Date:

Astronomy

Jan. 05, 2013 Rise Set
Actual Time 8:05 AM CST 5:31 PM CST
Civil Twilight 7:34 AM CST 6:01 PM CST
Nautical Twilight 7:00 AM CST 6:35 PM CST
Astronomical Twilight 6:27 AM CST 7:08 PM CST
Moon 1:13 AM CST (1/5) 12:22 PM CST (1/5)
Length of Visible Light 10h 26m
Length of Day
9h 26m
Last Quarter, 44% of the Moon is Illuminated
Jan 5
Last Quarter
Jan 11
New
Jan 18
First Quarter
Jan 26
Full
Feb 3
Last Quarter

Hourly Weather History & Observations

Time (CST) Temp. Windchill Dew Point Humidity Pressure Visibility Wind Dir Wind Speed Gust Speed Precip Events Conditions
12:53 AM 7.0 °F -7.5 °F 3.9 °F 87% 30.15 in 9.0 mi West 10.4 mph - N/A   Clear
1:53 AM 5.0 °F -10.8 °F 1.9 °F 87% 30.14 in 8.0 mi West 11.5 mph - N/A   Clear
2:53 AM 5.0 °F -5.6 °F 1.0 °F 84% 30.14 in 9.0 mi WSW 5.8 mph - N/A   Clear
3:53 AM 3.9 °F -9.4 °F -0.0 °F 84% 30.13 in 9.0 mi West 8.1 mph - N/A   Clear
4:53 AM 9.0 °F -4.2 °F 3.9 °F 80% 30.12 in 10.0 mi West 9.2 mph - N/A   Clear
5:53 AM 9.0 °F -9.5 °F 3.9 °F 80% 30.13 in 10.0 mi WNW 18.4 mph - N/A   Clear
6:53 AM 12.9 °F -0.9 °F 7.0 °F 77% 30.15 in 10.0 mi West 11.5 mph - N/A   Clear
7:53 AM 14.0 °F -0.2 °F 7.0 °F 74% 30.18 in 10.0 mi WNW 12.7 mph - N/A   Clear
8:53 AM 12.9 °F -0.2 °F 6.1 °F 74% 30.24 in 10.0 mi West 10.4 mph - N/A   Clear
9:53 AM 18.0 °F 4.2 °F 9.0 °F 68% 30.25 in 10.0 mi West 13.8 mph - N/A   Clear
10:53 AM 23.0 °F 13.1 °F 12.9 °F 65% 30.26 in 10.0 mi West 9.2 mph - N/A   Clear
11:53 AM 30.9 °F 22.2 °F 19.0 °F 61% 30.27 in 10.0 mi West 10.4 mph - N/A   Clear
12:53 PM 35.1 °F 25.5 °F 21.9 °F 59% 30.25 in 10.0 mi WNW 15.0 mph - N/A   Clear
1:53 PM 35.1 °F 25.9 °F 21.9 °F 59% 30.25 in 10.0 mi West 13.8 mph - N/A   Clear
2:53 PM 37.0 °F 29.3 °F 24.1 °F 59% 30.25 in 10.0 mi WNW 11.5 mph - N/A   Clear
3:53 PM 37.9 °F 27.3 °F 25.0 °F 60% 30.27 in 10.0 mi NNW 21.9 mph - N/A   Clear
4:53 PM 35.6 °F 25.5 °F 24.8 °F 65% 30.18 in 10.0 mi NW 17.3 mph - N/A   Clear
5:53 PM 30.9 °F 21.2 °F 23.0 °F 72% 30.32 in 10.0 mi NW 12.7 mph - N/A   Clear
6:53 PM 30.9 °F 22.2 °F 23.0 °F 72% 30.34 in 10.0 mi WNW 10.4 mph - N/A   Clear
7:53 PM 28.0 °F 17.5 °F 21.0 °F 75% 30.35 in 10.0 mi WNW 12.7 mph - N/A   Clear
8:53 PM 24.1 °F 14.4 °F 19.0 °F 81% 30.38 in 10.0 mi West 9.2 mph - N/A   Clear
9:53 PM 25.0 °F 15.5 °F 19.0 °F 78% 30.38 in 10.0 mi West 9.2 mph - N/A   Clear
10:53 PM 25.0 °F 13.6 °F 18.0 °F 75% 30.38 in 10.0 mi WNW 12.7 mph - N/A   Clear
11:53 PM 21.0 °F 9.9 °F 16.0 °F 81% 30.38 in 10.0 mi West 10.4 mph - N/A   Clear